Le nostre stazioni meteo in Italia

Pubblicità
Il mio iltempo24.it
Trapani/Birgi, Italia (16429): Temperatura & dewpoint: 05.12.2018 02:00:00 - 11.12.2018 02:00:00 (CET)Trapani/Birgi, Italia (16429): velocità del vento: 05.12.2018 02:00:00 - 11.12.2018 02:00:00 (CET)Trapani/Birgi, Italia (16429): direzione del vento: 05.12.2018 02:00:00 - 11.12.2018 02:00:00 (CET)Trapani/Birgi, Italia (16429): reduced air pressure: 05.12.2018 02:00:00 - 11.12.2018 02:00:00 (CET)Trapani/Birgi, Italia (16429): visibility: 05.12.2018 02:00:00 - 11.12.2018 02:00:00 (CET)Trapani/Birgi, Italia (16429): ore di luce: 05.12.2018 02:00:00 - 11.12.2018 02:00:00 (CET)
Data & Tempo tt [°C] td [°C] ff [km/h] ff [kn] dd ppp [hPa] vv [km] sd [min]
11.12.2018 02:00:00 15,0 9,6 22 12 NO 1018,0 14 -
11.12.2018 01:00:00 15,0 9,6 24 13 NO 1018,1 14 -
11.12.2018 00:00:00 15,2 10,0 31 17 NO 1018,1 14 -
10.12.2018 23:00:00 15,2 9,8 26 14 ONO 1018,1 14 -
10.12.2018 22:00:00 15,4 10,8 26 14 NO 1018,0 14 -
10.12.2018 21:00:00 15,2 10,6 28 15 NO 1017,9 14 -
10.12.2018 20:00:00 15,0 9,6 28 15 NO 1017,2 14 -
10.12.2018 19:00:00 15,0 9,2 26 14 NO 1017,2 10 -
10.12.2018 18:00:00 15,0 11,2 31 17 ONO 1017,2 18 -
10.12.2018 17:00:00 15,2 11,0 34 18 ONO 1017,2 18 0
10.12.2018 16:00:00 16,0 11,2 29 16 NO 1017,2 20 30
10.12.2018 15:00:00 16,2 11,4 31 17 NO 1017,2 20 36
10.12.2018 14:00:00 17,0 11,5 31 17 NO 1017,3 20 60
10.12.2018 13:00:00 17,0 11,1 34 18 ONO 1018,1 20 54
10.12.2018 12:00:00 16,2 12,2 29 16 ONO 1018,6 20 12
10.12.2018 11:00:00 16,2 11,8 28 15 ONO 1018,6 20 60
10.12.2018 10:00:00 16,2 11,6 29 16 ONO 1018,6 20 36
10.12.2018 09:00:00 15,2 11,0 28 15 ONO 1018,0 20 6
10.12.2018 08:00:00 15,0 12,0 28 15 ONO 1017,4 18 0
10.12.2018 07:00:00 14,8 12,7 31 17 ONO 1017,3 12 0
10.12.2018 06:00:00 16,0 10,1 26 14 NO 1017,1 12 -
10.12.2018 05:00:00 15,8 12,4 42 23 ONO 1016,7 12 -
10.12.2018 04:00:00 15,8 10,8 42 23 NO 1017,1 12 -
10.12.2018 03:00:00 15,8 11,4 41 22 ONO 1017,2 12 -
10.12.2018 02:00:00 16,0 12,9 34 18 O 1017,4 12 -
10.12.2018 01:00:00 16,0 11,8 46 25 O 1018,2 12 -
10.12.2018 00:00:00 16,0 12,4 46 25 ONO 1019,0 12 -
09.12.2018 23:00:00 16,2 14,4 31 17 ONO 1019,5 12 -
09.12.2018 22:00:00 16,2 14,2 34 18 ONO 1019,7 12 -
09.12.2018 21:00:00 16,2 13,9 29 16 ONO 1020,0 12 -
09.12.2018 20:00:00 15,0 12,0 26 14 O 1019,8 12 -
09.12.2018 19:00:00 15,6 12,9 24 13 O 1019,3 14 -
09.12.2018 18:00:00 15,6 12,9 24 13 O 1019,3 14 -
09.12.2018 17:00:00 16,0 14,0 24 13 O 1019,2 14 18
09.12.2018 16:00:00 17,0 13,5 28 15 O 1019,2 14 60
09.12.2018 15:00:00 17,0 14,5 46 25 ONO 1019,2 14 60
09.12.2018 14:00:00 17,0 14,3 35 19 ONO 1019,9 14 36
09.12.2018 13:00:00 17,4 14,1 31 17 O 1020,2 16 30
09.12.2018 12:00:00 17,2 13,7 28 15 ONO 1021,1 18 54
09.12.2018 11:00:00 17,0 12,7 26 14 ONO 1021,9 20 60
09.12.2018 10:00:00 15,6 11,8 21 11 ONO 1021,8 20 48
09.12.2018 09:00:00 15,0 10,8 8 4 ONO 1021,3 18 18
09.12.2018 08:00:00 14,0 10,6 18 10 ONO 1021,3 18 -
09.12.2018 07:00:00 15,0 11,0 18 10 NNO 1021,0 16 0
09.12.2018 06:00:00 15,2 9,3 13 7 NNO 1020,4 12 -
09.12.2018 05:00:00 15,2 10,2 15 8 NO 1020,2 10 -
09.12.2018 04:00:00 15,2 10,8 18 10 NO 1020,2 12 -
09.12.2018 03:00:00 15,4 10,4 16 9 NNO 1020,2 12 -
09.12.2018 02:00:00 15,2 9,8 15 8 ONO 1020,2 12 -
09.12.2018 01:00:00 15,0 11,0 22 12 ONO 1020,2 12 -
09.12.2018 00:00:00 15,2 10,6 24 13 ONO 1020,2 12 -
08.12.2018 23:00:00 15,4 7,9 21 11 ONO 1020,2 12 -
08.12.2018 22:00:00 15,2 8,2 15 8 NO 1020,2 12 -
08.12.2018 21:00:00 15,8 10,1 26 14 NO 1019,7 12 -
08.12.2018 20:00:00 16,2 9,6 28 15 NO 1019,3 12 -
08.12.2018 19:00:00 16,2 8,4 24 13 NO 1019,1 12 -
08.12.2018 18:00:00 15,8 8,5 28 15 NO 1018,5 12 -
08.12.2018 17:00:00 16,0 8,7 34 18 NO 1018,6 18 30
08.12.2018 16:00:00 16,4 9,6 42 23 ONO 1018,4 20 60
08.12.2018 15:00:00 17,4 11,7 46 25 ONO 1018,2 20 60
08.12.2018 14:00:00 17,8 12,9 42 23 O 1018,1 20 60
08.12.2018 13:00:00 17,8 12,7 41 22 ONO 1018,6 20 60
08.12.2018 12:00:00 18,0 13,1 31 17 ONO 1019,0 20 60
08.12.2018 11:00:00 17,2 13,1 29 16 ONO 1020,1 18 54
08.12.2018 10:00:00 16,6 12,5 24 13 O 1019,7 18 48
08.12.2018 09:00:00 15,4 12,7 24 13 O 1020,0 18 6
08.12.2018 08:00:00 15,0 12,0 24 13 O 1020,0 16 0
08.12.2018 07:00:00 15,0 12,5 18 10 O 1019,8 20 0
08.12.2018 06:00:00 14,0 11,5 15 8 O 1019,8 20 -
08.12.2018 05:00:00 13,8 11,3 16 9 O 1020,1 20 -
08.12.2018 04:00:00 13,0 10,2 13 7 OSO 1020,9 20 -
08.12.2018 03:00:00 12,6 10,0 13 7 OSO 1021,1 20 -
08.12.2018 02:00:00 10,2 8,0 9 5 SE 1021,6 20 -
08.12.2018 01:00:00 10,6 8,4 9 5 SE 1022,0 20 -
08.12.2018 00:00:00 11,0 8,7 8 4 SE 1022,1 20 -
07.12.2018 23:00:00 11,0 8,7 5 3 ESE 1022,1 20 -
07.12.2018 22:00:00 11,0 9,1 5 3 ESE 1022,2 20 -
07.12.2018 21:00:00 11,8 9,9 9 5 SE 1022,2 20 -
07.12.2018 20:00:00 12,8 11,2 5 3 SSE 1022,3 20 -
07.12.2018 19:00:00 13,4 11,8 5 3 S 1022,3 16 -
07.12.2018 18:00:00 15,4 13,8 5 3 NO 1022,1 20 0
07.12.2018 17:00:00 16,4 14,2 5 3 NNO 1022,1 22 -
07.12.2018 16:00:00 17,6 14,1 11 6 NNO 1021,6 22 60
07.12.2018 15:00:00 18,2 12,2 9 5 NO 1021,0 22 42
07.12.2018 14:00:00 18,4 14,3 9 5 NO 1021,0 22 60
07.12.2018 13:00:00 20,2 10,3 8 4 ESE 1021,0 22 -
07.12.2018 12:00:00 19,4 10,9 11 6 E 1021,2 22 60
07.12.2018 11:00:00 17,4 11,2 5 3 NNE 1021,4 22 -
07.12.2018 10:00:00 15,4 11,6 5 3 NNE 1021,3 20 60
07.12.2018 09:00:00 14,0 10,6 8 4 E 1021,0 20 30
07.12.2018 08:00:00 10,2 8,1 76 41 ESE 1020,0 18 0
07.12.2018 07:00:00 11,2 9,0 5 3 E 1019,2 18 -
07.12.2018 06:00:00 11,0 9,4 8 4 ESE 1018,2 12 -
07.12.2018 05:00:00 11,2 9,5 5 3 ESE 1018,1 12 -
07.12.2018 04:00:00 12,2 10,6 5 3 E 1018,1 12 -
07.12.2018 03:00:00 13,0 11,2 5 3 ESE 1018,1 12 -
07.12.2018 02:00:00 14,0 12,1 5 3 - 1018,1 14 -
07.12.2018 01:00:00 15,0 12,5 4 2 N 1018,3 12 -
07.12.2018 00:00:00 14,4 12,1 5 3 O 1018,4 12 -
06.12.2018 23:00:00 15,6 12,2 13 7 NO 1018,4 12 -
06.12.2018 22:00:00 15,8 14,0 13 7 O 1018,5 12 -
06.12.2018 21:00:00 16,0 14,2 21 11 O 1018,8 14 -
06.12.2018 20:00:00 16,0 14,2 16 9 OSO 1018,9 16 -
06.12.2018 19:00:00 16,0 14,0 15 8 SO 1018,9 20 -
06.12.2018 18:00:00 16,0 13,8 15 8 OSO 1019,1 20 -
06.12.2018 17:00:00 16,0 13,8 13 7 SO 1019,6 20 0
06.12.2018 16:00:00 16,0 12,5 13 7 OSO 1020,1 25 0
06.12.2018 15:00:00 16,0 13,3 11 6 OSO 1020,3 25 0
06.12.2018 14:00:00 16,6 12,7 15 8 SO 1021,1 25 6
06.12.2018 13:00:00 17,0 13,1 18 10 OSO 1021,7 25 36
06.12.2018 12:00:00 17,0 13,3 15 8 SO 1022,4 25 42
06.12.2018 11:00:00 16,8 12,5 8 4 S 1023,2 25 60
06.12.2018 10:00:00 14,0 10,4 8 4 SE 1023,6 25 60
06.12.2018 09:00:00 11,2 8,8 8 4 ESE 1023,5 25 60
06.12.2018 08:00:00 7,2 5,0 8 4 ESE 1023,5 20 6
06.12.2018 07:00:00 7,2 5,0 11 6 SE 1023,6 16 0
06.12.2018 06:00:00 8,0 5,8 5 3 E 1023,7 14 -
06.12.2018 05:00:00 8,0 6,0 9 5 ESE 1023,7 12 -
06.12.2018 04:00:00 8,2 6,2 9 5 ESE 1024,2 12 -
06.12.2018 03:00:00 8,8 6,9 5 3 E 1024,4 12 -
06.12.2018 02:00:00 8,2 6,7 9 5 E 1024,6 12 -
06.12.2018 01:00:00 8,0 6,5 8 4 ESE 1025,0 12 -
06.12.2018 00:00:00 8,8 7,2 4 2 ESE 1025,2 12 -
05.12.2018 23:00:00 10,0 8,6 4 2 SE 1025,2 14 -
05.12.2018 22:00:00 9,4 8,2 4 2 SE 1025,2 14 -
05.12.2018 21:00:00 10,6 9,2 4 2 NE 1025,1 14 -
05.12.2018 20:00:00 11,4 9,8 5 3 ESE 1025,1 16 -
05.12.2018 19:00:00 13,2 11,4 5 3 N 1024,1 18 -
05.12.2018 18:00:00 14,2 12,1 5 3 NNE 1023,7 20 -
05.12.2018 17:00:00 16,4 13,0 8 4 NNO 1023,5 20 48
05.12.2018 16:00:00 18,0 12,0 11 6 N 1023,3 20 60
05.12.2018 15:00:00 18,8 13,2 15 8 N 1023,2 20 60
05.12.2018 14:00:00 18,6 12,6 16 9 N 1023,2 20 60
05.12.2018 13:00:00 18,2 12,7 16 9 NNO 1023,3 20 60
05.12.2018 12:00:00 18,0 13,9 15 8 NNO 1023,3 20 60
05.12.2018 11:00:00 17,8 14,3 15 8 NNO 1023,2 20 60
05.12.2018 10:00:00 17,4 13,9 15 8 N 1023,0 20 54
05.12.2018 09:00:00 16,0 14,0 8 4 N 1022,1 18 6
05.12.2018 08:00:00 15,2 13,2 4 2 N 1021,4 18 0
05.12.2018 07:00:00 15,8 13,8 13 7 N 1021,0 15 0
05.12.2018 06:00:00 16,0 14,0 11 6 NNO 1020,2 12 -
05.12.2018 05:00:00 16,0 13,5 13 7 NNO 1019,4 12 -
05.12.2018 04:00:00 16,0 13,1 13 7 NNO 1019,3 12 -
05.12.2018 03:00:00 15,8 12,9 13 7 NNO 1019,1 12 -
05.12.2018 02:00:00 15,6 11,8 24 13 NNO 1019,0 12 -

tt = Temperatura
td = dewpoint
ff = velocità del vento
dd = direzione del vento
ppp = reduced air pressure
vv = visibility
sd = ore di luce

Stazioni seguenti

WeatherPro
AMSI
MeteoEarth